Volver al catálogo

COSMOS 2251 DEB

ActivoLEO
NORAD 34053·DEBRIS·🇷🇺 Russia

Lanzado Jun 16, 1993 desde Plesetsk Cosmodrome

Loading…

Próximos Pases (próximas 24 horas)

TLE

ActualizadoSource: Space-Track

Época: Sep 14, 2026, 02:41 UTC

1 34053U 93036JQ  26257.11203361  .00000166  00000-0  17384-3 0  9994
2 34053  73.8454 158.2594 0423366 261.0119  94.2856 13.49413731863980

Sigue COSMOS 2251 DEB en tiempo real con AllMySat

Download on the App Store